• In Uzbekistan
  • List of Countries
  • For 7 days
  • Water Temperature
  • Satellite Maps
  • Weather Map
  • Weather Widgets
  • user-avatar
    Login

    Hourly Weather Melbourne

    Today, 24 June, Sunday

    Time Temperature Precipitation Wind Pressure Humidity
    00:00 +8°C° 0 mm 2 mps 770 mmHg 93%
    01:00 +8°C° 0 mm 2 mps 770 mmHg 93%
    02:00 +7°C° 0 mm 2 mps 770 mmHg 93%
    03:00 +7°C° 0 mm 2 mps 770 mmHg 93%
    04:00 +7°C° 0 mm 2 mps 770 mmHg 94%
    05:00 +7°C° 0 mm 2 mps 770 mmHg 94%
    06:00 +7°C° 0 mm 2 mps 771 mmHg 94%
    07:00 +7°C° 0 mm 2 mps 771 mmHg 94%
    08:00 +8°C° 0 mm 2 mps 771 mmHg 91%
    09:00 +9°C° 0 mm 2 mps 771 mmHg 89%
    10:00 +10°C° 0 mm 2 mps 771 mmHg 86%
    11:00 +12°C° 0 mm 2 mps 771 mmHg 81%
    12:00 +12°C° 0 mm 2 mps 771 mmHg 77%
    13:00 +13°C° 0 mm 2 mps 771 mmHg 73%
    14:00 +13°C° 0 mm 2 mps 771 mmHg 73%
    15:00 +12°C° 0 mm 2 mps 770 mmHg 73%
    16:00 +12°C° 0 mm 2 mps 770 mmHg 74%
    17:00 +10°C° 0 mm 2 mps 771 mmHg 77%
    18:00 +9°C° 0 mm 2 mps 771 mmHg 81%
    19:00 +9°C° 0 mm 2 mps 771 mmHg 84%
    20:00 +8°C° 0 mm 2 mps 771 mmHg 86%
    21:00 +8°C° 0 mm 2 mps 772 mmHg 87%
    22:00 +7°C° 0 mm 2 mps 772 mmHg 89%
    23:00 +7°C° 0 mm 2 mps 772 mmHg 89%

    Tomorrow, 25 June, Monday

    Time Temperature Precipitation Wind Pressure Humidity
    00:00 +6°C° 0 mm 2 mps 772 mmHg 90%
    01:00 +6°C° 0 mm 2 mps 772 mmHg 91%
    02:00 +6°C° 0 mm 2 mps 772 mmHg 91%
    03:00 +6°C° 0 mm 2 mps 772 mmHg 92%
    04:00 +6°C° 0 mm 2 mps 772 mmHg 92%
    05:00 +6°C° 0 mm 2 mps 772 mmHg 93%
    06:00 +6°C° 0 mm 2 mps 772 mmHg 93%
    07:00 +6°C° 0 mm 2 mps 772 mmHg 93%
    08:00 +7°C° 0 mm 2 mps 772 mmHg 89%
    09:00 +8°C° 0 mm 2 mps 772 mmHg 85%
    10:00 +10°C° 0 mm 2 mps 772 mmHg 80%
    11:00 +12°C° 0 mm 2 mps 772 mmHg 75%
    12:00 +13°C° 0 mm 2 mps 772 mmHg 70%
    13:00 +14°C° 0 mm 2 mps 772 mmHg 66%
    14:00 +14°C° 0 mm 2 mps 771 mmHg 67%
    15:00 +13°C° 0 mm 1 mps 771 mmHg 69%
    16:00 +13°C° 0 mm 1 mps 771 mmHg 71%
    17:00 +12°C° 0 mm 1 mps 771 mmHg 77%
    18:00 +10°C° 0 mm 1 mps 772 mmHg 84%
    19:00 +8°C° 0 mm 0 mps 772 mmHg 90%
    20:00 +7°C° 0 mm 0 mps 772 mmHg 91%
    21:00 +8°C° 0 mm 1 mps 773 mmHg 92%
    22:00 +8°C° 0 mm 1 mps 773 mmHg 93%
    23:00 +8°C° 0 mm 1 mps 773 mmHg 93%

    Day after tomorrow, 26 June, Tuesday

    Time Temperature Precipitation Wind Pressure Humidity
    00:00 +7°C° 0 mm 1 mps 773 mmHg 94%
    01:00 +7°C° 0 mm 1 mps 773 mmHg 94%
    02:00 +7°C° 0 mm 1 mps 773 mmHg 95%
    03:00 +7°C° 0 mm 1 mps 773 mmHg 95%
    04:00 +7°C° 0 mm 1 mps 773 mmHg 95%
    05:00 +7°C° 0 mm 1 mps 773 mmHg 95%
    06:00 +6°C° 0 mm 1 mps 773 mmHg 96%
    07:00 +5°C° 0 mm 0 mps 773 mmHg 96%
    08:00 +7°C° 0 mm 0 mps 774 mmHg 91%
    09:00 +9°C° 0 mm 1 mps 774 mmHg 87%
    10:00 +11°C° 0 mm 1 mps 774 mmHg 82%
    11:00 +12°C° 0 mm 1 mps 774 mmHg 76%
    12:00 +13°C° 0 mm 1 mps 773 mmHg 70%
    13:00 +14°C° 0 mm 1 mps 773 mmHg 63%
    14:00 +14°C° 0 mm 1 mps 773 mmHg 66%
    15:00 +13°C° 0 mm 1 mps 772 mmHg 69%
    16:00 +13°C° 0 mm 1 mps 772 mmHg 72%
    17:00 +12°C° 0 mm 1 mps 772 mmHg 78%
    18:00 +11°C° 0 mm 1 mps 773 mmHg 83%
    19:00 +8°C° 0 mm 0 mps 773 mmHg 88%
    20:00 +8°C° 0 mm 0 mps 773 mmHg 89%
    21:00 +8°C° 0 mm 0 mps 773 mmHg 90%
    22:00 +8°C° 0 mm 0 mps 773 mmHg 91%
    23:00 +8°C° 0 mm 0 mps 773 mmHg 91%

    27 June, Wednesday

    Time Temperature Precipitation Wind Pressure Humidity
    00:00 +8°C° 0 mm 0 mps 773 mmHg 92%
    01:00 +8°C° 0 mm 0 mps 773 mmHg 92%
    02:00 +8°C° 0 mm 0 mps 773 mmHg 93%
    03:00 +7°C° 0 mm 0 mps 773 mmHg 93%
    04:00 +7°C° 0 mm 0 mps 772 mmHg 93%
    05:00 +7°C° 0 mm 0 mps 772 mmHg 94%
    06:00 +7°C° 0 mm 0 mps 772 mmHg 94%
    07:00 +7°C° 0 mm 0 mps 773 mmHg 95%
    08:00 +8°C° 0 mm 0 mps 773 mmHg 90%
    09:00 +9°C° 0 mm 0 mps 773 mmHg 85%
    10:00 +10°C° 0 mm 0 mps 773 mmHg 80%
    11:00 +11°C° 0 mm 0 mps 772 mmHg 74%
    12:00 +12°C° 0 mm 0 mps 772 mmHg 69%
    13:00 +14°C° 0 mm 1 mps 771 mmHg 64%
    14:00 +14°C° 0 mm 1 mps 771 mmHg 66%
    15:00 +14°C° 0 mm 1 mps 770 mmHg 68%
    16:00 +13°C° 0 mm 1 mps 770 mmHg 70%
    17:00 +12°C° 0 mm 1 mps 770 mmHg 78%
    18:00 +10°C° 0 mm 1 mps 770 mmHg 85%
    19:00 +8°C° 0 mm 0 mps 770 mmHg 93%
    20:00 +7°C° 0 mm 0 mps 770 mmHg 93%
    21:00 +7°C° 0 mm 0 mps 770 mmHg 94%
    22:00 +7°C° 0 mm 0 mps 771 mmHg 95%
    23:00 +6°C° 0 mm 0 mps 770 mmHg 95%

    28 June, Thursday

    Time Temperature Precipitation Wind Pressure Humidity
    00:00 +6°C° 0 mm 0 mps 770 mmHg 95%
    01:00 +6°C° 0 mm 0 mps 770 mmHg 95%
    02:00 +7°C° 0 mm 1 mps 769 mmHg 95%
    03:00 +6°C° 0 mm 1 mps 769 mmHg 95%
    04:00 +6°C° 0 mm 1 mps 769 mmHg 95%
    05:00 +6°C° 0 mm 1 mps 769 mmHg 95%
    06:00 +6°C° 0 mm 1 mps 769 mmHg 95%
    07:00 +6°C° 0 mm 1 mps 768 mmHg 95%
    08:00 +7°C° 0 mm 1 mps 768 mmHg 89%
    09:00 +9°C° 0 mm 1 mps 769 mmHg 83%
    10:00 +10°C° 0 mm 1 mps 769 mmHg 77%
    11:00 +12°C° 0 mm 1 mps 768 mmHg 72%
    12:00 +13°C° 0 mm 1 mps 767 mmHg 67%
    13:00 +14°C° 0 mm 2 mps 767 mmHg 63%
    14:00 +14°C° 0 mm 2 mps 766 mmHg 67%
    15:00 +13°C° 0 mm 2 mps 766 mmHg 71%
    16:00 +12°C° 0 mm 2 mps 766 mmHg 75%
    17:00 +10°C° 0 mm 2 mps 766 mmHg 79%
    18:00 +9°C° 0 mm 2 mps 766 mmHg 84%
    19:00 +8°C° 0 mm 3 mps 766 mmHg 89%
    20:00 +8°C° 0 mm 3 mps 766 mmHg 88%
    21:00 +8°C° 0 mm 3 mps 766 mmHg 88%
    22:00 +8°C° 0 mm 3 mps 766 mmHg 87%
    23:00 +7°C° 0 mm 3 mps 766 mmHg 89%

    29 June, Friday

    Time Temperature Precipitation Wind Pressure Humidity
    00:00 +7°C° 0 mm 3 mps 766 mmHg 90%
    01:00 +7°C° 0 mm 3 mps 765 mmHg 91%
    02:00 +7°C° 0 mm 3 mps 765 mmHg 90%
    03:00 +7°C° 0 mm 3 mps 765 mmHg 89%
    04:00 +7°C° 0 mm 3 mps 765 mmHg 88%
    05:00 +6°C° 0 mm 4 mps 765 mmHg 88%
    06:00 +6°C° 0 mm 4 mps 765 mmHg 87%
    07:00 +6°C° 0 mm 4 mps 765 mmHg 86%
    08:00 +7°C° 0 mm 4 mps 765 mmHg 82%
    09:00 +8°C° 0 mm 5 mps 765 mmHg 79%
    10:00 +9°C° 0 mm 5 mps 765 mmHg 75%
    11:00 +10°C° 0 mm 5 mps 765 mmHg 72%
    12:00 +10°C° 0 mm 5 mps 764 mmHg 68%
    13:00 +12°C° 0 mm 5 mps 764 mmHg 65%
    14:00 +12°C° 0 mm 4 mps 763 mmHg 66%
    15:00 +12°C° 0 mm 4 mps 763 mmHg 66%
    16:00 +12°C° 0 mm 4 mps 763 mmHg 67%
    17:00 +11°C° 0 mm 4 mps 763 mmHg 71%
    18:00 +11°C° 0 mm 3 mps 764 mmHg 75%
    19:00 +10°C° 0 mm 3 mps 764 mmHg 80%
    20:00 +9°C° 0.2 mm 3 mps 764 mmHg 83%
    21:00 +9°C° 0.2 mm 3 mps 765 mmHg 86%
    22:00 +9°C° 0.2 mm 2 mps 765 mmHg 89%
    23:00 +9°C° 0.4 mm 2 mps 765 mmHg 91%
    Show more